User: anonymous   Login
Location: Davayat
(45.9471°N, 3.1105°E)
Time: 12:54:42
(UTC+00:00)
Language:

ERS-2 - Orbit

View from above orbital plane
View from above orbital plane
View from above satellite
View from above satellite

Ground track
Ground track

The orbit data is extracted from the following two-line orbital elements,

1 23560U 95021A   21062.08859597  .00001285  00000-0  57300-4 0  9990
2 23560  98.5551 257.4066 0003844  29.3808 330.7641 15.23707163381528
Epoch (UTC): 03 March 2021 02:07:34
Eccentricity: 0.0003844
inclination: 98.5551°
perigee height: 492 km
apogee height: 497 km
right ascension of ascending node: 257.4066°
argument of perigee: 29.3808°
revolutions per day: 15.23707163
mean anomaly at epoch: 330.7641°
orbit number at epoch: 38152

The dashed part of the orbit path shows where the satellite is in the earth's shadow,  

DLR